Tracking 31027 objects as of 19-Jul-2025
HD Live streaming from Space Station
objects crossing your sky now

DELTA 1 DEB

Track DELTA 1 DEB now!
10-day predictions


NORAD ID: 7020
Int'l Code: 1973-086L
Perigee: 1,496.4 km
Apogee: 1,747.0 km
Inclination: 102.2 °
Period: 118.5 minutes
Semi major axis: 7992 km
RCS: 0.2266 m2 (medium)
Launch date: November 6, 1973
Source: United States (US)
Launch site: AIR FORCE WESTERN TEST RANGE (AFWTR)

Note: This is SATELLITE DEBRIS
Your satellite tracking list
ABS 3
Track 1 satellite(s)




NASA's NSSDC Master Catalog

Two Line Element Set (TLE):
1 07020U 73086L   25199.19944603  .00000064  00000-0  10629-2 0  9995
2 07020 102.2302 278.2054 0156713 292.9370 122.8924 12.14963150291107
Source of the keplerian elements: AFSPC